Whiteman AFB, MO

11:01 PM CST on December 13, 2019 (GMT -0600)
Whiteman Air Force Base

Weather History for KSZL - October, 2019

Change the Weather History Date:

Tuesday, October 1, 2019

  Actual Average Record
Temperature  
Mean Temperature 78 °F -  
Max Temperature 88 °F 71 °F 93 °F (2002)
Min Temperature 68 °F 49 °F 41 °F (2011)
Cooling Degree Days 12    
Growing Degree Days 28 (Base 50)    
Moisture  
Dew Point 71 °F    
Average Humidity 80    
Maximum Humidity 100    
Minimum Humidity 59    
Precipitation  
Precipitation 0.00 in - - ()
Sea Level Pressure  
Sea Level Pressure 29.89 in    
Wind  
Wind Speed 10 mph (SSW)    
Max Wind Speed 21 mph    
Max Gust Speed 30 mph    
Visibility 10 miles    
Events      
Averages and records for this station are not official NWS values.
T = Trace of Precipitation, MM = Missing Value Source: NWS Daily Summary

Daily Weather History Graph

Daily Weather History Graph

Search for Another Location

Airport or City:

Astronomy

Oct. 01, 2019 Rise Set
Actual Time 7:09 AM CDT 6:57 PM CDT
Civil Twilight 6:43 AM CDT 7:23 PM CDT
Nautical Twilight 6:12 AM CDT 7:54 PM CDT
Astronomical Twilight 5:41 AM CDT 8:25 PM CDT
Moon 10:24 AM CDT (10/1) 9:12 PM CDT (10/1)
Length of Visible Light 12h 40m
Length of Day
11h 47m
Waxing Crescent, 12% of the Moon is Illuminated
Oct 1
Waxing Crescent
Oct 5
First Quarter
Oct 13
Full
Oct 21
Last Quarter
Oct 27
New

Hourly Weather History & Observations

Time (CDT) Temp. Heat Index Dew Point Humidity Pressure Visibility Wind Dir Wind Speed Gust Speed Precip Events Conditions
1:56 AM 71.6 °F - 68.7 °F 91% 29.90 in 10.0 mi South 5.8 mph - N/A   Mostly Cloudy
2:56 AM 71.8 °F - 68.4 °F 89% 29.90 in 10.0 mi South 5.8 mph - N/A   Mostly Cloudy
3:56 AM 70.2 °F - 68.4 °F 94% 29.90 in 10.0 mi South 6.9 mph - N/A   Scattered Clouds
4:56 AM 69.4 °F - 68.2 °F 96% 29.91 in 10.0 mi South 6.9 mph - N/A   Scattered Clouds
5:56 AM 68.4 °F - 68.4 °F 100% 29.93 in 10.0 mi South 4.6 mph - N/A   Partly Cloudy
6:56 AM 68.0 °F - 68.0 °F 100% 29.94 in 10.0 mi South 8.1 mph - N/A   Partly Cloudy
7:56 AM 70.3 °F - 69.4 °F 97% 29.94 in 10.0 mi South 10.4 mph - N/A   Clear
8:56 AM 75.6 °F - 69.3 °F 81% 29.95 in 10.0 mi SSW 12.7 mph - N/A   Partly Cloudy
9:56 AM 80.2 °F 83.6 °F 70.3 °F 72% 29.95 in 10.0 mi SSW 18.4 mph 25.3 mph N/A   Partly Cloudy
10:56 AM 83.1 °F 88.1 °F 71.4 °F 68% 29.94 in 10.0 mi SW 20.7 mph 26.5 mph N/A   Clear
11:56 AM 85.3 °F 91.5 °F 72.1 °F 65% 29.94 in 10.0 mi SW 20.7 mph 26.5 mph N/A   Partly Cloudy
12:56 PM 87.3 °F 94.0 °F 72.1 °F 61% 29.91 in 10.0 mi SW 20.7 mph 29.9 mph N/A   Partly Cloudy
1:56 PM 87.1 °F 94.9 °F 73.4 °F 64% 29.90 in 10.0 mi SSW 17.3 mph 23.0 mph N/A   Scattered Clouds
2:56 PM 87.8 °F 95.2 °F 73.0 °F 61% 29.88 in 10.0 mi SW 15.0 mph - N/A   Scattered Clouds
3:56 PM 87.1 °F 94.1 °F 72.9 °F 62% 29.85 in 10.0 mi South 17.3 mph 21.9 mph N/A   Scattered Clouds
4:56 PM 86.7 °F 92.1 °F 71.1 °F 59% 29.84 in 10.0 mi SSW 13.8 mph 24.2 mph N/A   Mostly Cloudy
5:56 PM 84.6 °F 90.0 °F 71.4 °F 65% 29.84 in 10.0 mi SSW 12.7 mph - N/A   Mostly Cloudy
6:56 PM 77.9 °F - 72.3 °F 83% 29.85 in 10.0 mi South 8.1 mph - N/A   Scattered Clouds
7:56 PM 75.6 °F - 72.7 °F 91% 29.85 in 10.0 mi South 6.9 mph - N/A   Mostly Cloudy
8:56 PM 75.2 °F - 72.0 °F 90% 29.86 in 10.0 mi SSW 11.5 mph - N/A   Mostly Cloudy
9:56 PM 77.2 °F - 70.2 °F 79% 29.86 in 10.0 mi South 12.7 mph - N/A   Mostly Cloudy
10:56 PM 74.8 °F - 69.6 °F 84% 29.85 in 10.0 mi SSW 10.4 mph - N/A   Mostly Cloudy
11:56 PM 74.3 °F - 69.1 °F 84% 29.83 in 10.0 mi SSW 10.4 mph - N/A   Mostly Cloudy